Temperature
17 17 17 17 17 17 17 17 17 17 17 16 16 16 15 15 15 15 15 15 15 14 14 14 14 14 13 13 13 13 12 12 12 12 11 11 11 11
17 17 17 17 17 17 17 17 17 17 17 16 16 15 15 15 15 15 15 14 14 14 14 13 13 13 13 12 12 12 12 11 11 11 11 11 10 10
16 16 17 16 16 16 16 16 16 16 16 16 15 15 15 14 14 14 14 14 14 13 13 13 13 12 12 12 11 11 11 11 10 10 10 10 10 10
16 16 16 16 16 16 16 16 16 16 16 15 15 14 14 14 14 13 13 13 13 13 13 12 12 11 11 11 11 10 10 10 10 10 9 9 9 9
16 16 16 16 16 16 16 16 16 16 15 15 14 14 14 13 13 13 12 12 12 12 12 11 11 11 10 10 10 10 9 9 9 9 9 8 8 8
16 16 16 16 16 16 16 15 15 15 15 15 14 14 13 13 12 12 12 11 11 11 10 10 10 10 10 9 9 9 9 9 8 8 8 8 7 7
16 16 16 15 15 15 15 15 15 14 14 14 14 13 13 12 12 12 11 11 10 10 10 9 9 9 9 8 8 8 8 8 7 7 7 7 7 6
15 15 15 15 15 15 15 15 14 14 14 13 13 13 12 12 12 11 11 10 10 9 9 9 8 8 8 8 7 7 7 7 7 7 6 6 6 6
15 15 15 15 15 14 14 14 14 14 13 13 13 13 12 12 11 11 10 10 10 9 9 8 8 8 7 7 7 7 6 6 6 6 6 6 6 6
14 14 14 14 14 14 14 13 13 13 13 13 12 12 12 11 11 11 10 10 9 8 8 8 8 7 7 7 6 6 6 6 6 6 6 6 6 5
14 14 13 13 13 13 13 13 13 12 12 12 12 11 11 11 10 10 9 9 8 8 8 8 8 7 7 7 6 6 6 6 6 6 6 5 5 5
13 13 13 13 13 12 12 12 12 12 11 11 11 10 10 10 10 9 9 9 9 8 8 8 7 7 7 7 6 6 6 6 6 5 5 5 5 5
12 12 12 12 12 12 12 11 11 11 11 10 10 10 9 9 9 8 8 8 8 8 7 7 7 7 7 7 6 6 6 6 6 5 5 5 5 5
12 12 12 11 11 11 11 11 10 10 10 9 9 9 8 8 8 8 8 7 7 7 7 7 7 7 7 7 7 6 6 6 6 6 5 5 5 5
11 11 11 11 10 10 10 10 9 9 9 9 8 8 8 7 7 7 7 7 7 6 6 6 6 6 6 7 7 6 6 6 6 6 5 5 5 5
10 10 10 10 9 9 9 9 8 8 8 8 8 7 7 7 7 7 6 6 6 6 6 6 5 5 6 6 6 6 6 6 6 6 5 5 5 5
9 9 9 9 8 8 8 8 8 7 8 8 7 7 7 7 6 6 6 6 6 6 6 5 5 5 5 6 6 6 6 6 6 5 5 6 6 6
9 9 8 8 8 8 8 8 7 7 7 7 7 7 7 7 6 6 6 6 6 6 6 6 5 5 5 6 6 6 6 6 6 5 5 6 6 6
8 8 8 8 8 8 8 8 7 7 7 7 6 6 6 6 6 6 6 6 6 6 6 6 6 6 7 7 6 6 5 5 6 6 6 6 6 6
8 8 8 8 8 8 7 7 7 7 6 6 6 6 6 6 6 6 6 6 6 6 6 6 6 6 6 7 6 6 5 5 5 6 6 6 6 6
8 8 8 8 8 7 7 7 6 6 6 6 6 6 6 6 6 6 6 5 6 6 6 6 6 5 5 5 6 6 6 5 5 5 5 5 6 6
8 8 7 7 7 7 6 6 6 6 6 6 6 6 6 6 6 6 6 6 6 6 6 6 5 5 5 6 6 6 6 6 5 5 5 5 5 5
7 7 7 7 7 6 6 6 6 6 6 6 6 6 6 5 5 5 5 6 6 6 6 6 6 5 6 6 6 6 6 6 6 6 6 6 5 5
Wind_Speed
8 8 8 7 6 7 6 6 6 5 4 4 3 2 4 5 8 8 9 12 13 13 13 13 13 13 13 13 13 12 11 11 10 10 9 9 9 9
6 7 7 7 6 6 6 6 6 5 3 2 3 3 5 7 9 9 11 14 13 14 14 14 13 13 13 13 12 11 11 10 10 9 9 9 8 8
7 8 8 6 5 5 6 6 5 4 4 3 3 4 5 6 8 9 10 10 12 13 14 13 13 13 12 12 11 10 10 9 9 8 8 8 8 8
8 7 8 6 6 6 5 6 4 4 5 5 4 4 5 6 7 7 8 9 10 13 13 13 13 12 12 11 11 10 9 8 8 7 7 7 7 7
7 7 7 7 7 6 6 5 5 5 5 6 6 5 5 6 7 6 7 7 9 12 12 12 12 12 11 11 10 9 8 8 7 7 6 5 5 5
5 5 5 6 7 6 5 5 5 5 5 6 6 6 5 6 6 6 6 5 5 7 8 9 11 11 11 10 9 8 7 6 5 5 4 3 3 4
4 4 3 2 1 2 3 5 6 5 6 6 6 6 6 7 6 6 7 6 4 4 5 6 7 7 8 9 8 7 6 5 4 3 3 3 3 3
4 3 3 4 5 5 4 3 3 6 6 6 6 7 7 7 6 7 7 6 4 3 4 4 4 3 4 5 8 6 4 3 2 1 1 2 3 4
3 3 3 4 6 6 7 7 5 4 3 4 6 6 7 7 8 8 7 5 4 5 4 4 3 3 4 6 8 4 2 1 1 2 2 3 4 5
2 3 4 4 4 6 7 6 5 4 4 3 4 4 5 7 7 7 7 6 5 4 4 3 3 3 3 5 8 5 3 3 3 3 4 4 6 6
2 3 4 5 6 8 8 8 7 6 11 12 11 11 10 9 8 7 7 7 5 4 3 2 3 3 3 3 6 8 6 5 4 3 4 5 7 9
4 4 4 5 6 7 8 8 8 7 8 9 10 11 11 10 8 5 6 6 5 4 4 3 3 3 3 2 3 5 6 8 8 6 5 5 7 8
4 4 4 7 7 5 5 6 8 9 9 9 8 8 7 7 6 4 2 2 3 2 4 3 3 3 2 2 2 3 3 2 3 5 7 6 5 6
4 4 5 9 8 7 6 9 10 9 8 7 7 6 6 6 5 6 6 5 4 4 4 3 2 2 3 3 2 2 2 2 2 3 3 4 8 9
5 8 10 11 10 9 10 10 9 7 7 7 7 6 6 6 6 6 7 6 6 6 5 2 2 2 3 2 1 1 2 2 2 3 4 4 5 5
7 10 11 9 8 9 9 6 5 5 6 7 7 7 6 6 6 5 5 5 5 5 5 3 2 2 3 2 2 2 2 2 2 3 5 5 5 5
9 7 7 7 7 7 6 6 6 6 5 6 6 6 6 6 5 4 3 4 4 4 4 4 4 3 2 3 3 2 2 3 3 3 5 6 5 5
8 7 7 7 7 7 7 7 6 6 6 6 6 6 6 6 5 5 4 3 3 3 3 3 3 4 4 4 3 3 3 3 3 3 6 6 6 5
6 6 6 6 7 7 7 7 6 6 6 6 6 6 6 5 5 5 4 4 3 3 3 3 3 3 4 3 4 5 4 4 5 5 5 6 7 7
6 6 6 6 6 7 6 6 6 7 6 6 6 5 5 5 5 5 4 4 3 3 3 3 3 3 4 3 2 3 7 5 6 6 7 7 7 7
6 6 6 6 6 6 6 6 6 6 6 6 6 6 5 5 5 5 4 5 4 4 4 3 1 2 4 4 5 4 4 8 7 7 8 9 9 8
5 6 6 6 6 6 7 6 6 6 7 6 6 6 6 5 6 5 5 5 5 4 4 2 3 4 5 6 7 6 6 5 9 15 15 12 9 10
5 6 6 6 7 7 7 7 7 6 6 6 6 6 6 6 5 5 5 5 5 5 4 4 4 5 6 7 7 7 7 8 8 7 9 14 18 20
Wind_Direction
235 229 236 240 237 242 236 234 234 230 218 183 183 156 144 122 126 131 126 124 127 126 123 121 119 115 112 107 103 98 92 87 82 76 68 63 59 53
237 241 238 243 235 237 235 234 233 235 231 189 168 156 134 128 121 120 117 117 118 120 119 119 119 116 114 110 106 101 96 90 84 78 73 67 60 53
230 227 228 242 240 239 235 234 235 233 217 183 143 132 135 131 124 124 124 121 116 119 121 121 121 120 116 112 107 101 94 89 85 79 75 68 61 52
230 228 227 221 221 234 232 228 221 216 205 176 164 154 143 138 132 130 127 124 119 118 120 122 123 123 120 116 109 103 97 93 86 80 74 66 58 49
233 228 226 223 224 223 222 218 209 196 187 178 172 158 153 146 137 127 118 115 120 122 120 121 123 123 120 115 111 107 102 97 89 82 73 64 55 45
233 233 232 227 224 219 211 202 193 183 176 175 165 161 156 150 148 148 140 132 129 127 118 120 124 125 122 119 114 109 105 98 90 78 68 59 46 28
222 225 225 202 196 202 204 187 181 183 177 175 169 167 169 168 171 168 154 141 129 139 140 136 139 138 136 131 120 108 100 92 83 73 61 37 17 2
209 205 181 150 129 118 112 118 162 181 183 182 181 181 180 177 166 163 155 156 158 163 157 143 154 147 141 125 118 117 111 104 102 85 8 341 333 329
193 184 177 145 132 131 119 110 95 84 120 185 187 186 174 173 168 168 168 166 148 154 167 155 158 154 147 124 129 141 158 192 248 267 281 288 292 299
162 160 152 147 141 138 128 115 103 86 92 131 153 161 156 156 165 164 152 138 128 148 184 176 168 171 156 145 154 175 197 228 246 255 269 284 289 289
127 135 143 143 126 132 134 129 119 103 82 87 93 102 107 124 141 149 154 161 159 162 189 193 168 170 176 180 172 184 201 212 225 247 267 282 289 284
129 123 113 130 136 146 147 142 138 133 125 113 105 111 116 120 128 151 167 174 165 161 170 195 172 181 183 179 187 192 199 199 207 217 235 263 293 303
149 144 129 119 124 128 139 139 136 135 130 124 120 118 116 118 127 130 131 170 169 147 149 185 182 197 203 176 187 202 216 223 219 215 215 223 253 289
148 140 128 127 125 123 122 120 127 133 129 127 127 126 126 125 121 114 101 85 71 101 133 172 185 197 208 204 183 185 211 243 279 296 299 224 229 235
115 108 118 126 124 117 119 132 144 141 136 134 132 129 126 122 121 122 119 117 116 120 127 158 197 201 236 236 205 211 238 245 273 298 304 305 302 285
123 118 118 119 118 117 134 143 144 134 139 139 136 133 132 135 138 143 145 147 141 133 135 147 183 224 233 236 251 247 265 280 288 303 307 295 287 292
144 141 140 141 143 147 148 141 141 144 145 142 143 144 145 145 145 148 156 162 159 150 147 161 172 204 243 263 249 257 275 280 291 311 291 292 294 297
156 155 159 163 165 165 160 157 159 159 155 152 154 156 156 156 152 152 162 171 163 156 157 163 180 193 206 206 239 269 276 290 297 288 284 293 299 305
168 165 169 171 174 169 167 164 161 154 156 165 167 166 162 160 160 161 168 174 171 167 172 184 208 231 242 226 189 225 281 294 291 290 292 296 300 307
183 177 178 177 174 169 168 164 157 157 164 166 166 167 166 168 171 174 174 175 177 184 191 200 222 254 282 302 297 234 221 266 291 300 304 302 296 285
191 186 180 176 173 170 166 163 163 166 167 170 170 174 176 182 184 187 178 167 211 210 214 211 164 268 277 275 268 263 240 219 248 282 298 300 302 301
185 183 177 174 173 172 170 169 169 172 175 183 179 182 188 192 191 196 195 195 209 221 231 220 182 229 252 264 274 280 279 270 240 236 246 261 290 303
185 183 178 180 180 178 176 178 183 185 184 187 185 188 192 193 198 201 204 214 219 224 235 240 234 239 254 263 271 277 281 282 282 274 258 235 235 248
Height
1572 1573 1574 1575 1576 1577 1578 1579 1580 1580 1581 1581 1582 1582 1583 1583 1583 1584 1585 1585 1586 1587 1587 1588 1588 1588 1588 1588 1588 1587 1587 1586 1586 1585 1584 1583 1582 1581
1567 1569 1570 1572 1573 1573 1574 1575 1576 1577 1578 1578 1578 1579 1580 1581 1581 1582 1582 1583 1584 1584 1585 1585 1586 1586 1586 1586 1585 1585 1584 1584 1583 1582 1582 1581 1579 1578
1563 1564 1565 1566 1568 1569 1570 1571 1572 1573 1574 1575 1575 1576 1577 1578 1578 1580 1580 1581 1581 1582 1582 1583 1583 1583 1583 1583 1583 1582 1582 1581 1581 1580 1579 1578 1577 1576
1559 1560 1561 1562 1563 1565 1566 1567 1568 1569 1570 1571 1572 1573 1573 1575 1576 1577 1578 1579 1579 1580 1580 1580 1581 1581 1581 1581 1580 1580 1580 1579 1579 1578 1577 1576 1574 1573
1555 1556 1557 1558 1559 1560 1561 1562 1563 1565 1566 1567 1568 1569 1571 1572 1573 1574 1575 1576 1577 1577 1578 1578 1578 1579 1579 1578 1578 1578 1577 1577 1576 1576 1575 1573 1572 1571
1551 1552 1552 1553 1554 1555 1556 1558 1559 1561 1562 1564 1565 1566 1567 1568 1570 1572 1573 1574 1575 1575 1575 1576 1576 1576 1576 1576 1576 1575 1575 1575 1574 1573 1572 1571 1570 1569
1547 1548 1549 1549 1550 1552 1553 1554 1555 1557 1558 1560 1561 1562 1564 1565 1567 1569 1570 1571 1572 1573 1573 1574 1574 1574 1574 1573 1573 1573 1573 1572 1572 1571 1570 1569 1568 1567
1544 1544 1545 1546 1547 1547 1549 1550 1552 1553 1554 1556 1558 1559 1560 1562 1564 1565 1567 1568 1569 1571 1571 1572 1573 1573 1573 1573 1571 1571 1571 1570 1570 1569 1568 1567 1566 1564
1540 1541 1542 1542 1543 1544 1545 1546 1547 1549 1551 1553 1555 1556 1557 1559 1561 1562 1564 1565 1566 1567 1569 1570 1571 1571 1572 1571 1570 1570 1569 1569 1568 1567 1566 1565 1564 1562
1537 1538 1538 1539 1540 1541 1542 1544 1545 1547 1548 1550 1552 1553 1555 1556 1558 1560 1561 1562 1564 1565 1567 1568 1569 1570 1570 1569 1568 1568 1567 1567 1566 1565 1564 1563 1561 1560
1534 1535 1536 1537 1538 1539 1540 1541 1543 1544 1546 1547 1549 1550 1551 1553 1555 1557 1558 1560 1562 1563 1564 1566 1566 1567 1568 1568 1567 1566 1566 1565 1565 1564 1562 1561 1560 1558
1532 1533 1534 1535 1536 1537 1538 1539 1540 1541 1543 1544 1546 1548 1549 1551 1552 1554 1556 1558 1560 1561 1561 1563 1564 1565 1566 1567 1566 1566 1565 1564 1563 1562 1561 1560 1559 1558
1530 1531 1532 1533 1534 1535 1536 1537 1538 1540 1541 1543 1544 1546 1547 1549 1550 1552 1554 1556 1558 1559 1559 1560 1562 1563 1564 1565 1565 1565 1565 1564 1563 1562 1560 1559 1557 1556
1528 1529 1530 1531 1532 1534 1535 1536 1537 1538 1540 1541 1543 1544 1546 1548 1549 1551 1552 1553 1555 1557 1557 1558 1560 1561 1562 1563 1564 1564 1563 1563 1562 1562 1561 1558 1556 1554
1527 1527 1528 1529 1531 1532 1533 1534 1536 1538 1539 1541 1542 1544 1545 1547 1548 1550 1551 1552 1553 1555 1556 1556 1558 1559 1561 1562 1562 1562 1562 1562 1561 1560 1559 1558 1556 1554
1524 1525 1527 1528 1529 1530 1532 1533 1535 1537 1539 1540 1542 1543 1545 1546 1548 1550 1551 1553 1554 1555 1555 1555 1556 1558 1560 1560 1561 1561 1561 1560 1559 1558 1557 1555 1554 1552
1523 1524 1526 1527 1528 1530 1531 1533 1534 1536 1538 1540 1541 1543 1544 1546 1548 1550 1551 1553 1554 1555 1555 1556 1556 1557 1557 1559 1559 1559 1559 1558 1557 1556 1554 1553 1552 1550
1522 1523 1524 1526 1527 1529 1530 1531 1533 1535 1537 1539 1541 1543 1544 1546 1548 1549 1551 1552 1554 1554 1555 1556 1557 1557 1557 1557 1557 1557 1557 1556 1555 1553 1552 1551 1549 1548
1521 1522 1523 1525 1526 1528 1529 1530 1532 1533 1535 1538 1540 1542 1543 1545 1547 1548 1550 1551 1553 1554 1555 1555 1556 1556 1556 1556 1554 1554 1554 1554 1553 1552 1550 1548 1546 1544
1518 1520 1522 1523 1525 1526 1528 1529 1530 1532 1534 1536 1539 1541 1542 1544 1546 1547 1549 1550 1552 1553 1554 1554 1555 1555 1555 1555 1554 1552 1551 1551 1551 1549 1547 1545 1543 1540
1517 1518 1519 1521 1523 1524 1526 1527 1529 1530 1532 1534 1537 1539 1541 1543 1545 1546 1548 1549 1550 1551 1552 1553 1552 1552 1552 1552 1552 1551 1550 1548 1546 1545 1543 1542 1539 1537
1514 1516 1517 1519 1520 1522 1523 1525 1527 1529 1531 1533 1535 1537 1539 1541 1543 1545 1546 1547 1549 1550 1550 1551 1550 1550 1550 1550 1549 1548 1547 1545 1543 1541 1539 1537 1536 1533
1512 1514 1515 1516 1518 1519 1521 1523 1525 1528 1530 1532 1534 1536 1538 1539 1541 1543 1544 1545 1547 1548 1548 1548 1548 1548 1548 1547 1546 1545 1543 1542 1540 1538 1536 1533 1531 1529